Volver al catálogo

STARLINK-3509

ActivoComunicacionesVLEO
NORAD 51737·PAYLOAD·🇺🇸 United States

Lanzado Feb 21, 2022 desde Cape Canaveral Space Force Station

Loading…

Próximos Pases (próximas 24 horas)

TLE

ActualizadoSource: CelesTrak SupGP

Época: Sep 14, 2026, 20:45 UTC

1 51737C 22016Z   26257.86506944 -.00015022  00000+0 -39875-3 0  2571
2 51737  53.1556 176.7590 0002781  94.3885 341.4625 15.37727432    17

Sigue STARLINK-3509 en tiempo real con AllMySat

Download on the App Store